{"data":{"norad_id":48571,"intl_designator":"2021-041U","name":"STARLINK-2221","alt_names":[],"object_type":"PAYLOAD","status":"ACTIVE","operator":null,"country":"US","launch_date":"2021-05-15","launch_site_code":"AFETR","launch_vehicle":null,"mission":null,"orbit_class":"UNKNOWN","rcs_meters":null,"size_class":null,"mass_kg":null,"dimensions":null,"purposes":["comms"],"wikipedia_slug":null,"has_3d_model":false,"image_url":null,"decayed_at":null,"tle_current":{"epoch":"2026-09-19T18:27:13.099968Z","epoch_age_seconds":100460,"freshness":"FRESH","line1":"1 48571U 21041U   26262.76890162  .00002547  00000+0  93833-4 0  9997","line2":"2 48571  53.1618 316.3492 0001470  75.9993 284.1171 15.31691971294836","mean_motion":15.31691971,"eccentricity":0.000147,"inclination_deg":53.1618,"raan_deg":316.3492,"arg_perigee_deg":75.9993,"mean_anomaly_deg":284.1171,"bstar":9.3833e-5,"rev_number":29483,"period_min":94.013680770283,"perigee_km":469.75714092479,"apogee_km":471.77071779802,"semimajor_km":6848.9009293614,"source":"CELESTRAK","updated_at":"2026-09-20T09:00:39.134742Z"}}}